START 1 DEB, 27752

Orbit data source: Space-Track

START 1 DEB, 27752 is space debris in LEO originally from a launch on Thu, 25 Mar 1993 UTC launched from the Plesetsk Missile And Space Complex (PKMTR). Debris objects in space refer to the collection of defunct objects orbiting the Earth. Examples of debris include non-operational satellites, rocket bodies, and fragments generated from explosions, collisions, or faulty payload assembly.

Loading next visibility...
Identifier
27752, 1993-014G
Orbit
LEO
Country
Flag of CISCIS
Related business
Manufacturer
Kompleks-MIT
Mission
Spacecraft
Bus & Motor
Unknown
Mass
Unknown
Launch date (UTC)
1993-03-25 (33 years ago)
Launch vehicle
Unknown
Launch site
Plesetsk Missile And Space Complex (PKMTR)
Object type
Payload
Rocket body
Debris
Shape & HBR
Unknown shape, 0.1 m
Radar Cross Section
Small (<0.1 m²)

Expand to show TLE details & history
Last TLE update: 3 days ago

TLE from 3 days ago
0 START 1 DEB
1 27752U 93014G   26170.57221581  .00000228  00000-0  80647-4 0  9998
2 27752  75.7605 277.8076 0178524  36.9093 324.4195 14.28967252259234
Epoch: 2026-06-19T13:43Z
TLE epoch observation values (Epoch: 2026-06-19T13:43:59.445Z)
Latitude
-0.00001°
Longitude
164.01064°
Altitude
694.502 km
Speed
7.563 km/s
True Right ascension
18h 31m 13s
True Declination
0° 00' 00"
Sunlit
Object was in full shadow at epoch
Visualization orbit readout
Latitude
Unknown
Longitude
Unknown
Altitude
Unknown
Speed
Unknown
Apparent Right ascension
Unknown
Apparent Declination
Unknown
Sunlit
N/A
Visualization observer readout
Local Sidereal Time
01:06:00
Azimuth
Unknown
Elevation
Unknown
Doppler factor
Unknown
Orbital elements
Apogee altitude
920.692 km
Perigee altitude
664.66 km
Semi-major axis
7,170.813 km
Eccentricity
0.01785
Inclination
75.7605°
RAAN
277.8076°
Arg. of periapsis
36.9093°
True anomaly
323.2073°
Mean anomaly
324.4195°
Eccentric anomaly
323.81561°
Mean motion
3.5743 °/min
Orbital period
100.72 mins
BSTAR
0.000080647
Loading maneuver chart data...
Computing Atmospheric mass density...
Loading historical data...
Loading historical data...
Loading historical data...
Loading historical data...
Loading historical data...
Loading historical data...
Loading historical data...

Documentation

Showing up to 5 results
|